RH
74 73 70 69 69 69 68 65 64 65 67 67 66 64 64 65 67 69 71 72 73 73 73 73 74 76 79 82 84 84 80 78 80 85 87 89 91 93 96 98 99 99 97 94 91 90 93 95 96 95 94 92 92 92 93 95 96 97 98 99 100 100 100 100 100 100 100 98 97 96 95 94 93 91 89 88 87 84 82 81 80 79 80 85 91 96
72 69 66 64 65 67 67 65 66 68 71 72 71 68 64 62 64 67 70 72 72 72 72 72 74 75 76 79 82 85 86 81 76 74 76 84 90 94 96 97 97 96 95 94 94 95 96 97 98 97 96 94 95 96 98 99 99 99 100 100 100 100 100 100 100 100 99 97 96 96 96 95 94 92 90 90 90 89 88 85 83 81 82 88 93 96
69 66 64 61 61 63 63 62 64 67 70 71 70 66 61 58 58 63 69 70 70 70 70 71 72 73 74 76 78 82 85 81 73 66 65 72 79 86 92 94 96 97 97 98 99 100 99 99 98 96 94 94 94 97 99 100 100 100 100 99 99 99 99 99 99 99 98 97 96 96 96 96 95 94 93 92 92 92 92 90 89 87 87 92 96 98
66 63 61 60 58 56 55 54 56 59 61 62 62 60 57 57 58 62 66 68 68 68 69 68 69 70 72 73 74 76 77 73 66 60 58 62 71 82 92 96 99 100 100 99 99 98 98 96 94 93 92 92 93 95 98 99 100 100 100 99 98 98 97 98 99 99 98 98 97 96 96 97 96 95 94 94 94 94 94 94 94 94 94 96 97 98
66 63 60 58 56 52 48 48 49 51 52 54 55 56 57 60 64 68 69 68 68 68 70 68 66 67 70 71 71 71 71 72 70 66 63 66 75 86 96 98 98 98 98 98 97 96 95 93 92 92 92 92 92 94 95 97 98 99 99 99 98 97 96 96 98 98 99 98 98 98 98 98 98 97 96 95 95 96 96 96 97 97 98 98 98 98
68 64 61 61 58 55 53 52 52 52 53 54 56 58 61 64 69 73 74 72 70 70 71 68 66 66 68 68 68 67 67 70 72 72 70 73 78 85 90 92 91 90 90 90 91 91 90 90 90 91 92 93 93 94 94 95 96 96 96 97 97 97 96 96 96 98 99 99 99 99 99 99 99 98 97 97 97 97 97 97 98 98 98 98 98 99
71 67 65 66 65 62 61 60 60 59 61 65 66 68 69 69 71 73 76 74 74 74 75 74 73 71 70 68 68 68 68 70 70 70 70 70 71 71 71 72 72 72 74 76 79 81 83 84 86 90 94 96 96 96 95 94 94 94 93 93 94 95 96 96 96 98 98 98 98 98 99 100 100 99 99 98 98 98 98 98 98 98 98 98 99 99
80 78 77 77 74 72 72 71 68 67 70 76 79 80 83 81 78 76 73 74 76 78 82 83 82 80 77 74 73 74 75 76 75 72 69 65 60 54 50 50 51 54 58 64 70 74 77 79 84 89 96 99 99 98 96 96 95 95 94 93 93 94 95 96 97 98 98 98 98 98 98 99 99 100 100 98 98 98 98 98 98 98 98 99 99 99
89 88 87 86 84 84 84 82 78 76 77 83 87 89 90 90 89 85 79 78 78 81 84 87 87 85 81 78 77 78 79 77 76 73 72 65 56 47 41 40 42 46 52 60 66 72 74 78 83 90 98 98 97 95 94 94 95 96 97 97 96 95 95 96 96 97 98 98 98 98 98 98 98 99 99 99 98 98 99 98 98 98 99 99 99 99
92 90 90 90 90 90 90 90 86 84 84 86 88 90 90 92 90 90 87 84 81 80 81 82 82 81 80 79 79 80 81 80 79 78 76 71 64 56 50 47 48 52 58 64 69 73 76 80 86 92 97 96 93 90 89 90 93 96 98 98 98 96 96 96 96 97 98 98 98 98 98 98 98 98 98 98 98 99 99 98 98 98 99 99 99 99
92 90 90 91 90 90 90 91 90 88 86 86 85 83 82 82 83 84 85 84 82 80 80 79 79 80 84 85 86 86 86 88 88 86 84 83 80 76 69 64 65 68 72 74 76 77 79 84 89 93 96 93 90 87 86 89 92 95 98 98 98 97 96 96 96 97 97 98 98 98 98 98 98 98 97 97 97 98 99 98 98 98 98 99 99 99
93 90 88 87 86 86 86 86 84 82 81 80 78 76 74 72 73 76 80 82 82 82 81 81 82 85 89 90 92 92 92 93 93 92 92 92 90 88 84 82 84 86 85 80 78 78 81 86 90 93 94 92 88 85 84 87 91 94 97 98 98 97 96 96 96 96 97 98 98 98 98 98 98 98 97 96 96 97 98 98 98 98 98 99 99 99
90 89 85 82 81 81 82 82 79 77 75 74 74 75 74 72 74 78 81 82 83 83 83 83 85 88 90 92 92 93 94 94 95 95 94 94 92 90 92 94 94 92 83 78 76 76 79 85 90 92 92 89 86 82 81 84 88 92 97 98 98 96 96 96 96 97 98 98 98 98 98 98 98 98 97 96 96 97 98 97 97 98 98 99 99 99
88 86 84 84 82 79 77 78 78 77 76 76 77 79 80 81 82 83 83 83 84 85 86 86 87 90 92 92 92 92 91 91 92 92 92 87 83 83 90 90 86 81 76 76 76 76 76 82 85 86 85 83 80 77 75 77 81 88 94 97 97 96 94 94 94 94 95 97 98 98 98 98 98 98 98 97 97 97 98 97 97 97 98 98 98 98
87 86 83 82 82 82 79 81 83 84 84 82 82 83 83 84 85 85 84 84 86 87 88 88 89 90 93 90 88 86 85 84 85 86 87 86 85 85 88 90 88 86 82 82 80 78 78 80 79 77 75 74 72 70 68 70 74 80 88 94 96 95 93 91 89 88 89 92 94 97 98 98 98 98 99 98 98 98 98 97 97 97 98 98 98 98
86 86 84 82 82 83 84 84 84 84 85 84 85 85 85 86 87 88 87 88 89 90 90 89 89 90 91 90 87 84 83 83 85 87 90 92 92 91 90 92 92 90 86 83 80 78 78 76 73 70 68 66 65 65 66 67 69 74 81 89 93 94 94 92 90 88 87 88 90 93 96 98 98 98 99 98 98 98 98 98 98 98 98 98 98 98
87 86 86 85 84 84 85 85 84 84 84 85 86 87 87 88 90 92 92 93 93 93 93 92 91 90 89 88 87 87 86 86 88 92 94 96 93 89 88 89 89 88 85 82 80 77 76 71 67 65 64 64 66 67 68 69 70 72 76 82 88 92 94 93 92 92 92 92 92 93 95 96 98 98 98 98 98 98 97 98 98 98 98 98 99 98
87 86 86 85 84 84 84 84 84 84 85 86 88 89 90 92 94 95 96 96 96 96 96 96 94 92 92 90 89 89 89 90 90 91 89 82 76 74 78 81 83 83 80 76 74 71 68 66 65 65 67 68 70 72 74 74 73 73 74 78 84 88 92 93 93 93 94 94 95 96 96 97 98 99 98 98 98 98 97 98 98 98 98 99 98 98
86 86 85 84 84 85 85 85 85 86 87 89 90 92 94 94 96 96 96 97 98 98 99 98 97 95 94 90 90 90 92 92 92 92 88 88 84 78 74 77 77 75 73 71 69 68 68 70 71 73 74 75 76 78 78 78 77 76 76 78 82 87 92 92 92 92 92 93 94 96 97 98 98 99 99 98 98 98 98 98 98 98 98 98 98 98
87 86 85 86 86 87 87 88 88 89 90 92 94 96 96 97 97 98 98 98 98 99 99 98 98 97 96 94 93 93 94 94 95 96 96 95 94 92 88 88 88 86 82 79 78 78 79 79 78 78 79 79 80 80 80 80 79 79 78 80 83 86 90 90 89 88 88 88 90 92 96 97 98 98 98 98 98 98 98 98 98 98 98 98 98 98
88 88 88 89 89 89 90 90 91 92 94 96 96 97 98 98 98 98 98 99 99 99 99 98 98 97 96 95 94 95 96 96 96 97 97 96 94 93 92 90 89 88 89 87 86 85 85 83 82 80 80 79 79 79 79 80 80 80 80 81 83 85 87 87 86 85 84 84 86 90 95 97 98 98 98 98 98 98 98 98 98 98 98 98 98 98
89 89 90 92 92 92 93 93 94 94 96 96 96 97 97 97 98 98 98 98 98 98 97 97 97 97 96 95 96 96 96 96 97 98 98 95 94 93 92 90 90 90 90 89 89 88 86 84 82 80 79 78 78 78 78 79 80 81 81 82 82 83 84 84 83 82 81 82 86 92 97 97 98 98 98 98 98 98 98 98 98 98 98 98 98 98
90 90 92 92 93 94 95 95 95 94 95 95 95 95 95 96 96 96 97 97 97 97 97 97 96 95 95 94 95 95 93 96 96 97 96 96 96 94 92 91 91 92 92 92 91 90 86 83 82 81 80 80 80 79 79 80 80 81 82 82 82 82 82 81 81 81 82 84 89 94 97 98 98 98 98 98 98 98 98 98 98 98 98 98 99 99
90 92 93 93 94 94 94 94 94 94 92 92 92 92 89 90 91 93 95 96 96 96 96 96 96 96 95 94 94 93 94 96 97 96 96 97 98 96 94 92 92 93 93 94 93 92 88 85 84 84 85 84 82 82 81 81 82 82 82 82 81 80 80 80 82 84 86 90 94 98 98 98 98 98 98 98 98 98 99 98 98 98 99 99 99 99
92 92 94 94 94 93 92 92 91 89 86 84 83 83 83 86 89 92 93 94 95 96 96 96 97 97 96 96 95 95 96 96 96 96 96 98 98 97 94 93 94 94 95 94 94 92 90 90 89 89 89 87 86 85 84 84 83 83 83 82 81 81 80 82 84 88 90 95 98 99 99 99 99 99 99 99 99 99 99 99 99 99 99 99 99 99
93 94 94 94 93 92 92 90 87 83 81 85 89 92 92 92 94 94 95 96 96 96 95 96 96 96 96 95 93 92 92 93 94 94 96 97 97 97 95 94 95 96 96 95 94 93 94 94 94 92 92 90 90 89 88 87 86 86 85 84 84 83 84 85 88 92 95 98 100 100 99 99 99 99 99 99 99 99 99 99 99 100 100 100 100 99
93 92 92 90 90 90 90 89 88 86 86 89 92 94 93 94 94 94 95 96 95 94 93 94 95 95 93 92 90 89 90 90 90 92 94 95 97 98 97 96 96 96 98 97 96 96 97 97 96 94 93 93 94 94 93 92 92 90 90 90 89 89 88 89 92 94 98 99 100 100 100 100 100 100 100 100 100 100 100 100 100 100 100 100 100 99
90 90 88 87 89 91 94 94 93 92 90 92 92 93 92 91 90 92 95 95 94 94 94 95 95 94 93 92 92 90 90 90 91 92 94 94 96 97 97 95 96 97 98 98 98 97 97 97 96 95 94 96 96 97 98 98 98 97 96 97 96 96 94 94 95 97 99 100 100 100 100 100 100 100 100 100 100 100 100 100 100 100 100 99 99 98
88 86 84 86 90 92 94 94 92 92 92 92 93 93 92 90 89 90 94 93 94 94 95 96 95 94 94 93 92 92 90 90 89 90 93 94 96 97 97 97 97 98 98 99 98 98 98 97 96 96 96 96 97 98 99 100 100 100 100 100 100 100 99 98 99 99 100 100 100 100 100 100 100 100 100 100 100 100 100 100 100 100 99 98 98 97
82 80 80 85 90 92 94 92 92 92 92 93 94 94 93 92 91 92 92 92 93 94 95 96 95 94 93 92 92 92 90 90 90 92 94 96 97 98 97 98 98 98 98 98 99 99 98 98 97 96 95 95 96 97 98 99 99 100 100 100 100 100 100 100 100 100 100 100 100 100 100 100 100 100 100 100 100 100 100 100 99 99 98 97 97 96
79 78 82 86 90 93 93 93 92 92 92 92 92 92 93 92 92 92 92 92 92 93 94 95 94 94 93 92 92 92 90 90 91 92 94 96 97 97 97 98 98 98 98 98 98 98 98 97 97 97 96 96 96 97 97 98 98 99 99 100 100 100 100 99 99 99 99 99 99 99 99 100 100 100 100 100 100 100 99 99 98 98 96 96 95 95
79 81 86 90 92 94 94 94 93 92 92 92 92 92 93 93 92 92 92 92 92 92 92 94 94 93 93 94 93 92 92 92 92 93 94 95 96 96 97 97 98 98 97 98 98 98 98 96 96 97 97 97 97 97 96 97 98 98 98 98 99 99 98 98 98 97 97 97 97 98 98 98 99 99 99 99 99 99 99 98 98 96 95 94 94 94
81 86 90 92 94 94 94 94 94 93 92 92 92 92 92 93 93 93 92 92 92 92 92 93 93 94 94 94 93 93 92 92 92 93 94 95 96 96 96 97 97 97 96 97 97 98 98 97 97 97 97 97 98 98 97 97 97 97 97 98 98 98 97 97 96 96 96 96 96 96 97 98 98 98 98 99 99 98 98 98 97 96 94 93 92 92
86 90 92 94 94 95 94 94 94 93 93 92 92 92 92 93 93 93 92 92 92 92 92 93 93 93 93 93 93 93 92 93 93 94 94 94 94 95 96 96 96 96 96 96 96 96 96 97 98 98 98 98 97 97 96 96 96 96 96 97 97 97 97 97 97 97 97 97 96 96 97 97 97 97 98 98 98 98 98 98 96 95 94 92 91 90
92 93 94 94 94 94 94 94 93 93 93 92 92 92 92 92 92 92 92 92 92 92 92 92 92 92 92 92 92 92 93 93 93 94 94 93 93 94 94 95 95 96 96 96 96 96 97 97 98 98 98 98 97 96 96 96 96 96 96 96 96 96 97 97 97 97 97 98 97 97 97 97 97 97 97 98 97 97 97 97 96 94 93 92 90 88
93 94 94 94 94 94 94 94 94 93 93 92 92 92 92 92 92 92 92 92 92 92 92 92 92 92 92 92 92 92 93 92 92 93 93 93 92 92 92 94 94 94 95 96 96 96 96 97 97 97 97 98 98 97 96 96 96 96 96 96 96 96 96 96 97 97 98 98 98 98 97 97 97 97 97 97 97 96 96 96 95 94 92 90 88 84
93 94 94 94 94 94 94 94 93 93 93 93 92 92 92 92 92 92 92 92 92 92 92 92 92 92 92 92 92 92 92 92 92 92 92 93 92 92 92 93 94 94 94 94 95 95 95 96 96 96 96 97 98 98 97 97 96 96 96 96 96 96 96 96 96 97 98 98 97 97 97 97 97 97 97 97 97 96 96 96 95 93 90 88 85 81
93 94 94 94 94 94 94 93 93 93 93 93 92 92 92 92 92 92 92 92 92 92 92 92 92 92 92 92 92 92 92 91 90 90 90 92 92 92 92 93 94 94 93 93 94 94 95 96 96 96 96 97 97 97 97 97 97 96 96 96 96 96 96 96 96 97 98 98 98 97 97 97 97 97 96 96 96 96 96 96 95 93 90 87 84 79
94 94 94 94 94 94 94 93 93 93 93 92 92 92 92 92 91 92 92 92 92 92 92 92 92 92 92 92 92 92 92 91 90 90 90 92 92 93 93 93 93 94 94 93 93 93 94 96 96 97 96 96 96 96 96 96 96 96 96 96 96 96 96 96 96 97 98 98 98 97 97 97 96 96 96 96 96 96 96 96 95 94 91 89 88 85
93 94 94 94 94 94 94 93 93 92 92 92 92 91 90 90 90 90 90 92 92 92 92 92 91 91 91 92 92 92 92 92 91 91 91 92 92 93 94 93 93 93 93 93 93 94 94 95 96 96 96 96 96 96 96 96 96 96 96 96 96 96 96 96 96 96 97 97 97 97 97 96 96 96 96 96 96 96 96 96 95 94 90 88 87 88
93 93 94 93 93 93 93 93 92 92 92 92 92 90 90 90 91 91 91 91 91 91 90 90 90 90 91 91 91 92 92 92 92 92 92 92 93 94 94 94 94 94 93 93 94 94 95 96 96 96 96 96 96 96 96 96 95 95 96 96 96 96 96 96 96 96 96 97 97 96 96 96 96 96 96 96 96 96 95 94 94 92 90 84 79 78
93 93 93 93 93 93 93 92 92 92 92 92 92 92 91 92 92 92 92 92 91 90 90 90 91 91 91 91 92 92 92 92 92 92 92 93 93 94 94 94 94 94 94 94 94 95 96 96 96 97 96 96 96 96 95 94 94 94 95 96 96 96 96 96 96 96 96 96 96 96 96 96 96 96 96 96 96 96 95 93 92 90 89 84 78 71
93 93 93 93 93 93 93 92 92 92 92 92 92 92 92 92 92 92 92 92 92 90 90 91 91 92 92 92 92 92 92 92 92 92 93 93 93 93 93 93 94 94 94 95 95 96 96 96 96 96 96 96 96 95 95 94 94 94 94 96 96 96 94 95 96 96 96 96 96 96 96 96 96 96 96 96 96 96 96 94 92 90 87 85 82 78
92 93 93 93 93 93 93 92 92 92 92 92 92 92 92 92 92 92 92 92 92 91 91 92 92 92 92 92 92 92 92 92 92 92 92 93 93 93 93 94 94 94 95 95 96 96 96 96 96 96 95 94 94 94 95 95 95 95 94 95 95 95 95 95 95 96 96 96 96 96 96 96 96 96 96 96 96 96 96 95 94 92 89 88 86 84
92 92 92 93 93 93 93 93 92 92 92 92 92 92 92 92 92 92 92 92 92 92 92 92 92 92 92 92 92 92 92 92 92 92 92 92 93 93 93 93 94 94 95 95 95 95 96 96 96 95 95 94 94 94 94 94 95 95 95 95 95 95 94 94 95 96 96 96 96 96 96 96 96 96 96 96 96 96 96 95 95 94 92 90 90 89
92 92 92 92 93 93 93 92 92 92 92 92 92 92 92 92 92 92 92 92 92 92 92 92 91 91 92 92 92 92 92 92 92 92 92 92 92 92 92 93 93 93 94 94 95 95 95 95 95 95 95 94 93 93 93 94 95 95 95 96 96 96 96 96 95 95 95 96 96 95 95 95 96 96 96 96 96 96 95 95 95 94 94 92 91 90
92 92 92 92 92 92 92 92 92 92 92 92 92 91 91 92 92 92 92 92 92 92 92 92 92 91 91 92 92 92 92 92 92 92 92 92 92 92 92 92 92 93 93 94 94 94 94 94 94 94 95 94 94 93 93 94 94 95 95 95 96 95 95 95 95 95 95 95 95 94 92 91 92 93 94 94 95 95 95 95 94 94 93 92 91 90
92 92 92 92 92 92 92 92 92 92 92 92 92 91 90 92 92 92 92 92 92 92 92 92 91 91 91 92 92 92 92 92 92 92 92 92 92 92 92 92 92 92 93 94 94 94 94 94 94 94 94 94 94 93 94 94 94 95 95 95 95 96 96 96 96 95 95 94 90 86 80 77 77 80 83 88 91 93 94 94 94 94 94 93 92 92
90 91 92 92 92 92 92 92 92 92 92 92 92 91 90 90 91 91 92 92 92 92 92 91 90 90 91 92 92 92 92 92 92 92 92 92 92 92 92 92 92 92 93 94 94 94 94 93 93 93 93 93 93 93 94 94 95 95 95 95 95 95 95 94 94 92 91 87 80 72 64 60 58 58 63 72 78 83 86 88 91 93 93 92 92 92
90 90 90 91 92 92 92 92 92 92 91 91 91 91 90 90 90 90 91 92 92 91 90 90 90 91 92 92 92 92 92 92 92 92 92 92 92 92 92 92 92 92 93 93 93 92 90 89 89 89 90 91 92 94 94 94 95 95 95 95 95 94 91 86 81 76 73 70 64 58 53 50 49 49 50 54 58 62 68 74 81 86 84 82 83 84
91 90 90 90 91 92 92 92 91 91 90 91 91 92 92 90 90 90 91 92 91 90 90 90 91 91 92 92 92 92 92 92 92 92 92 92 92 92 92 92 92 92 92 90 89 87 84 83 82 82 83 84 86 89 91 90 90 91 92 92 92 89 81 70 61 55 51 51 50 50 48 48 48 48 49 47 47 49 54 58 63 66 64 64 66 66
Wind_Speed
36 38 38 39 41 42 43 42 41 41 40 39 38 37 37 36 36 36 36 37 38 40 42 42 41 40 39 39 39 38 38 38 38 38 37 36 36 36 37 37 38 38 39 40 42 42 42 42 42 42 42 42 42 41 41 42 42 42 43 43 45 47 49 49 47 45 43 43 44 46 47 48 48 47 47 46 46 47 48 48 48 48 47 47 48 50
36 38 38 39 39 40 41 40 39 38 38 38 37 37 36 37 38 38 38 38 38 39 40 41 41 40 40 40 40 39 38 38 38 37 36 35 35 36 36 37 39 40 41 42 42 42 42 42 42 42 42 42 41 41 41 41 42 43 43 44 45 46 48 49 49 47 43 41 42 44 46 47 48 47 47 46 46 47 47 48 48 48 47 47 49 50
38 39 39 39 38 39 39 39 39 38 38 38 38 38 38 39 40 40 39 39 38 38 38 39 40 40 41 41 40 40 39 39 39 38 37 36 36 36 36 36 37 38 39 39 39 39 40 41 41 42 42 42 41 40 40 40 41 42 43 43 43 44 45 47 48 47 44 41 41 42 44 46 47 47 47 46 46 47 47 48 48 48 47 47 49 50
40 40 39 39 38 39 39 39 39 39 39 39 39 39 39 39 39 39 39 38 39 39 40 39 40 40 41 42 41 41 41 42 42 41 39 37 35 35 34 34 34 35 35 35 36 37 38 39 40 40 40 40 39 39 38 39 39 40 41 41 41 42 43 45 46 47 45 42 41 41 42 44 46 47 47 47 47 47 47 47 47 47 46 46 47 49
39 38 38 38 39 39 40 40 39 39 39 39 38 38 38 38 38 38 38 38 39 41 41 41 42 42 42 42 42 42 43 43 43 41 38 36 34 34 34 34 34 34 34 34 34 34 35 36 37 38 38 38 37 37 37 37 38 38 39 39 40 40 40 42 44 45 45 43 41 41 42 43 44 46 46 47 47 48 47 46 46 45 44 45 45 47
37 38 38 38 38 39 40 40 39 39 39 38 38 38 38 38 38 38 39 40 40 40 41 42 42 42 42 42 43 43 43 43 42 41 38 36 35 36 37 37 38 37 37 36 35 34 34 35 35 36 36 36 36 36 36 36 37 37 38 38 38 38 39 40 42 44 44 43 42 42 42 42 43 45 45 46 47 47 46 44 43 43 43 43 45 47
37 38 38 37 38 39 39 39 38 38 38 37 38 39 40 40 40 40 41 41 41 41 41 41 41 41 41 41 41 42 42 42 42 40 38 36 37 39 41 42 43 42 41 40 38 37 36 36 35 35 35 34 34 34 34 35 36 36 37 37 38 38 38 39 41 43 43 43 43 42 42 42 43 44 44 45 46 47 46 44 43 43 42 43 45 47
36 36 36 36 37 38 37 37 37 36 36 37 38 40 41 42 42 42 43 43 42 41 41 41 41 41 40 39 39 39 40 40 39 37 37 39 42 45 46 47 46 45 44 42 40 38 37 36 35 35 34 32 32 31 32 33 34 34 35 36 37 37 38 39 41 42 43 43 43 42 41 42 42 43 44 45 46 47 47 45 45 44 43 43 45 48
34 34 34 34 34 35 36 36 36 35 34 36 38 39 41 42 43 44 45 45 43 41 40 39 40 41 41 41 40 39 39 40 40 39 41 43 46 48 48 47 46 43 41 39 37 36 35 35 35 34 33 32 31 31 31 31 31 32 32 33 34 36 37 39 40 42 43 44 44 43 42 42 42 43 44 45 46 47 48 48 47 46 44 44 47 49
32 33 33 33 33 33 35 36 36 36 35 37 38 39 40 42 44 44 45 45 45 43 41 40 41 42 43 43 41 40 40 40 40 41 42 44 45 46 45 43 39 37 36 35 34 34 34 34 34 34 33 33 32 32 31 30 30 29 30 30 32 34 36 37 39 41 42 44 44 44 43 43 42 43 44 45 47 48 49 50 50 48 46 46 48 51
33 33 33 33 34 35 35 36 36 36 37 38 39 39 39 39 40 41 42 43 43 42 41 40 40 40 40 41 40 39 38 38 38 39 39 39 40 41 39 36 32 30 31 31 32 33 33 34 34 34 35 35 34 33 32 30 29 28 28 29 30 31 33 35 36 38 39 42 44 45 45 45 44 43 44 46 47 48 49 50 51 50 47 47 49 52
35 34 35 35 36 36 36 36 37 38 38 37 37 38 39 39 38 38 39 41 41 40 40 40 39 38 39 40 40 39 38 38 38 38 37 37 38 38 36 32 29 28 30 32 33 34 34 34 34 35 36 36 36 35 33 31 29 27 27 27 28 30 31 32 33 34 35 38 41 44 46 46 45 45 45 46 48 49 50 51 52 51 48 47 50 55
36 35 36 37 37 36 35 36 37 38 38 37 36 36 38 39 38 36 37 39 39 39 40 40 40 40 39 39 38 38 39 38 38 37 38 38 38 37 34 32 31 31 33 34 35 35 35 35 35 36 37 37 37 36 34 32 30 28 26 26 26 28 29 30 30 30 31 34 38 42 45 46 46 45 45 46 48 49 51 53 53 51 48 49 53 58
37 37 37 37 37 37 37 36 36 37 38 38 37 37 38 38 37 36 37 38 38 38 39 40 40 40 39 39 39 39 39 40 40 40 40 41 39 37 34 34 34 35 34 34 35 35 36 36 37 38 38 38 38 38 37 35 33 29 27 25 25 26 28 29 30 31 31 32 34 38 41 44 45 45 45 46 48 50 52 53 53 50 49 51 55 59
37 38 38 37 36 36 36 36 37 38 38 38 37 37 37 37 37 37 38 39 39 38 38 39 39 39 39 38 38 38 38 39 40 40 41 41 40 38 37 37 37 35 34 34 34 36 37 39 40 41 41 41 41 41 40 39 36 32 29 26 26 26 28 30 31 33 34 34 34 36 38 40 41 42 43 45 48 51 53 54 52 50 50 53 56 57
38 37 37 37 37 37 37 37 38 39 39 38 37 37 38 39 38 37 38 39 38 37 38 38 38 38 38 39 37 36 35 36 37 38 39 40 40 39 37 37 38 37 35 34 34 37 40 43 44 45 45 44 44 42 41 40 37 34 31 29 28 27 28 29 31 33 34 35 35 35 36 37 37 39 41 45 48 51 53 53 51 50 51 54 56 55
38 38 38 39 40 40 39 39 40 40 39 38 37 37 38 39 39 38 38 38 37 37 36 35 34 34 35 38 37 33 31 30 31 34 36 38 37 35 33 32 31 32 34 35 38 42 46 48 49 49 48 46 44 42 40 38 36 34 33 31 30 29 29 30 30 31 32 32 33 34 34 34 35 37 41 45 49 51 52 52 51 50 52 57 58 56
38 39 39 40 41 41 40 39 39 39 38 38 38 37 36 37 37 36 36 37 37 36 36 35 34 33 33 34 34 33 30 28 31 37 43 48 49 47 42 40 40 41 42 44 47 50 50 50 50 48 46 43 41 39 37 35 34 33 33 32 31 30 30 30 30 30 29 30 30 31 32 33 35 38 42 46 49 51 50 50 49 51 54 59 60 59
39 39 39 40 41 41 41 40 40 40 39 40 39 38 39 39 38 36 35 35 35 36 36 35 35 34 35 36 36 35 34 34 39 44 48 49 49 48 45 43 43 45 47 48 49 49 47 46 44 42 41 40 38 36 34 33 32 32 31 31 30 29 28 28 28 28 28 28 28 28 29 32 36 40 44 47 49 50 48 48 49 51 55 59 61 61
40 39 39 40 40 41 41 40 40 40 40 41 41 41 39 39 38 36 35 34 33 34 34 35 35 35 36 37 39 40 37 36 36 39 41 44 46 45 41 38 39 41 44 45 44 43 41 41 40 40 39 38 36 34 33 32 31 30 30 29 28 27 26 26 26 26 26 26 25 26 28 32 38 42 45 47 48 47 47 48 50 53 56 59 59 59
42 42 41 40 41 42 42 42 41 39 40 40 39 37 36 34 33 31 31 32 33 34 35 35 36 37 38 40 41 41 40 37 37 38 39 41 43 44 41 38 38 39 41 42 41 41 40 40 41 41 40 38 36 34 32 31 30 29 28 27 26 25 25 24 24 24 24 23 23 24 28 34 39 43 46 47 47 46 47 48 51 53 55 55 54 52
42 43 42 41 41 42 43 44 43 41 37 34 32 31 30 31 32 34 36 37 38 39 41 42 42 42 43 44 43 43 42 40 39 40 40 41 43 45 43 39 36 36 37 39 40 41 42 42 42 42 40 38 35 34 32 31 30 29 28 26 25 24 23 23 23 23 22 21 21 24 30 35 40 43 44 45 45 45 47 49 51 52 52 51 49 47
41 43 43 42 41 41 41 39 37 34 32 30 31 32 35 37 40 41 41 42 42 43 44 44 45 46 46 45 45 44 43 42 41 41 40 39 40 42 40 35 31 31 34 37 39 42 44 44 43 41 39 37 35 34 32 31 30 28 27 25 24 23 22 22 22 22 21 20 21 25 31 35 38 41 42 43 44 46 47 49 50 51 50 49 47 45
41 42 42 41 40 38 35 34 33 33 35 36 38 40 42 42 43 42 40 41 42 43 44 45 45 46 45 45 44 43 41 38 36 35 35 36 37 37 34 30 28 30 35 38 40 42 43 43 42 40 38 36 34 33 32 30 29 28 26 24 22 21 21 21 21 21 20 21 23 27 31 35 37 40 41 43 44 46 48 49 50 50 50 49 47 44
40 40 39 38 37 36 35 35 36 37 38 39 39 39 39 39 38 38 39 40 41 43 43 43 42 40 38 37 35 32 29 25 23 23 26 28 31 33 33 31 30 32 37 39 41 42 42 41 39 37 36 34 33 31 30 29 28 26 24 22 20 19 19 19 20 20 20 22 25 30 33 36 38 40 42 43 45 46 47 48 49 49 49 47 45 43
36 36 36 35 35 35 35 36 36 35 35 34 34 34 35 35 36 38 39 39 39 38 36 35 33 33 32 31 29 29 29 28 26 26 28 28 32 35 36 35 33 33 36 39 40 40 38 37 36 35 34 32 31 30 29 27 25 23 21 19 17 17 17 18 19 19 21 24 28 32 36 38 40 41 43 44 45 46 47 47 47 46 45 43 41 39
34 35 35 35 35 34 33 33 33 33 33 33 32 32 33 34 35 37 38 37 35 33 32 31 33 36 38 39 39 38 37 35 34 34 33 33 33 35 37 36 34 33 35 36 36 35 34 35 34 33 32 31 29 28 26 24 21 18 16 16 15 16 17 17 18 19 22 26 30 34 37 39 40 42 43 44 44 45 44 43 42 40 39 37 36 35
36 36 36 34 32 30 30 31 33 35 35 34 33 32 32 33 33 34 35 35 35 36 38 38 38 38 38 37 37 38 38 36 34 33 31 31 31 33 35 35 34 32 32 32 32 32 33 34 34 33 31 29 27 23 20 17 14 13 12 13 14 15 16 17 19 21 25 29 33 36 38 39 40 41 42 42 42 41 39 38 36 35 34 33 33 32
38 37 34 31 29 28 29 31 34 37 37 35 34 33 32 32 32 33 35 35 36 36 36 36 36 36 36 37 38 39 38 37 35 31 26 25 28 31 32 31 30 29 28 28 30 32 33 34 33 31 29 25 21 16 12 11 11 12 14 15 16 17 18 19 22 25 28 32 35 37 38 39 39 39 39 38 37 35 34 33 32 32 31 32 32 31
40 38 34 31 29 29 31 34 36 37 37 35 34 33 33 33 33 34 35 35 34 34 34 35 36 37 37 37 37 35 34 32 27 21 17 19 23 26 28 28 28 28 27 26 27 28 29 30 29 27 23 20 16 13 12 13 15 17 19 20 20 20 21 23 26 29 31 34 35 36 37 37 36 36 35 33 32 31 30 30 31 31 32 32 32 31
41 38 35 33 31 31 33 35 37 37 37 36 35 34 34 34 34 34 33 33 33 34 35 37 38 38 37 35 30 27 26 27 25 21 20 21 23 26 28 27 28 28 27 25 22 21 22 21 20 19 17 14 12 13 15 17 20 22 23 24 24 24 24 26 28 30 32 32 33 33 33 32 32 31 30 30 29 29 29 30 31 32 33 33 33 32
40 37 36 34 33 33 34 36 37 38 38 37 37 36 35 35 34 33 32 32 33 35 37 38 38 37 36 33 30 28 28 30 31 30 27 26 27 29 29 27 27 27 27 26 23 20 18 17 15 14 13 12 12 15 18 21 23 25 26 26 26 26 25 26 27 28 28 27 27 27 28 28 28 28 28 28 28 28 29 31 32 33 34 34 33 33
38 36 36 35 35 34 35 36 37 38 38 38 37 36 36 35 35 34 33 34 35 36 37 37 37 36 35 34 33 33 33 34 34 32 28 26 26 28 28 27 26 26 27 27 26 25 22 21 19 18 16 14 14 17 21 24 26 27 28 28 27 26 24 25 25 24 24 24 24 24 25 25 26 27 27 28 28 29 30 32 33 34 34 34 34 33
37 37 37 36 35 34 34 36 38 38 38 37 36 35 35 36 36 36 36 36 36 36 35 35 35 35 34 34 34 34 34 33 32 29 26 25 26 27 28 28 27 27 27 27 27 26 25 25 24 22 19 18 18 20 24 26 28 28 29 29 28 27 25 25 25 25 24 24 24 25 25 26 26 27 28 28 29 29 30 31 32 33 33 33 33 33
37 38 38 36 35 35 36 38 39 38 37 36 36 35 36 36 37 38 38 37 36 35 34 32 31 31 31 32 33 34 34 32 30 28 26 27 28 30 31 31 31 29 27 27 27 27 26 27 27 25 22 20 21 23 25 27 28 28 28 28 28 27 27 27 27 27 27 27 27 27 27 27 27 27 28 28 28 28 28 29 30 31 30 30 30 31
38 38 37 35 35 36 38 38 38 38 38 38 38 37 38 38 38 38 38 37 35 34 32 30 28 27 26 27 29 31 32 31 28 26 25 26 29 32 33 34 33 32 29 29 29 29 28 27 27 25 22 21 23 25 26 27 27 27 27 27 27 27 27 28 28 29 29 29 29 28 28 28 28 28 27 27 27 26 26 27 27 27 27 26 26 27
38 37 36 34 35 36 38 38 38 38 39 40 41 41 41 40 39 38 37 36 34 32 30 28 26 24 23 23 24 26 28 28 26 24 24 25 28 31 34 34 34 32 32 32 32 31 29 27 25 23 20 20 23 26 27 27 26 26 26 26 26 26 26 27 27 28 29 29 29 29 28 28 28 27 27 26 26 25 25 25 24 24 23 23 22 22
37 36 35 35 36 38 37 37 37 37 38 40 42 42 42 40 39 38 36 35 33 31 29 26 24 22 21 21 22 24 26 26 26 25 25 25 27 29 32 33 33 32 32 33 33 32 30 27 24 21 19 19 22 25 28 28 28 27 26 26 26 26 25 26 26 27 27 28 28 28 28 28 28 27 27 27 26 25 24 24 23 22 21 20 20 19
35 36 36 36 37 38 39 39 38 38 39 40 41 41 42 40 39 37 36 34 32 30 28 25 23 22 21 21 22 24 26 27 27 27 27 27 28 29 31 32 32 31 30 30 31 30 29 28 25 23 21 20 22 24 27 29 30 29 28 27 26 26 25 26 26 26 27 27 28 28 28 28 28 28 27 27 27 26 26 25 23 22 21 21 20 19
37 37 37 37 38 38 38 39 39 40 41 43 43 43 41 40 39 37 36 34 32 29 27 24 23 21 21 21 23 24 25 27 28 28 29 29 29 29 30 30 29 28 27 27 28 28 28 27 26 25 23 22 22 24 27 29 30 31 31 30 28 27 27 27 27 27 27 27 28 28 28 28 28 28 27 27 27 26 26 25 24 23 22 22 22 22
37 38 39 38 37 38 38 39 40 42 43 44 44 43 42 40 39 38 36 34 31 28 26 23 22 22 22 22 22 23 25 26 27 28 28 29 29 28 27 26 25 24 23 24 25 25 25 25 24 24 23 22 22 24 27 29 31 31 32 32 32 31 30 29 29 28 28 28 28 28 28 28 28 27 27 26 26 25 25 24 23 22 21 21 22 23
37 38 40 40 40 39 38 40 42 43 44 44 43 42 41 40 38 37 36 34 31 28 25 23 23 24 24 24 23 22 23 24 25 26 27 27 26 25 23 21 20 19 19 20 20 21 22 22 22 23 22 22 22 24 27 29 31 32 33 34 34 33 31 30 30 29 29 29 28 28 28 28 28 27 26 26 25 24 23 23 22 22 21 20 20 21
39 40 40 42 42 42 42 42 43 44 44 43 42 41 40 38 36 35 34 33 30 27 25 23 23 24 25 25 23 22 21 22 23 24 23 23 21 20 18 16 15 15 15 15 16 17 18 19 20 21 21 21 21 23 28 31 32 32 34 35 35 34 32 31 30 30 30 29 29 28 28 28 27 26 26 25 25 24 23 22 22 21 20 20 19 18
40 40 41 42 42 42 41 41 42 43 43 43 42 40 38 36 34 33 32 30 28 26 24 23 22 23 24 24 23 21 20 19 20 20 19 18 16 14 13 12 12 12 12 12 12 13 14 16 17 18 18 18 20 23 28 32 34 34 34 35 35 34 34 33 32 32 31 30 29 29 28 27 27 26 25 25 24 24 24 23 22 21 20 19 18 18
39 40 41 41 41 41 40 41 42 43 43 42 41 39 37 34 32 31 30 28 27 25 24 23 23 23 24 23 22 20 18 17 16 15 14 13 12 10 9 9 9 9 9 9 9 10 12 14 15 15 15 16 18 23 29 33 35 36 35 35 35 34 34 33 33 32 31 30 30 29 28 27 26 26 25 25 25 24 24 24 23 22 21 20 20 19
39 41 41 42 42 41 40 41 42 43 42 41 39 37 35 33 31 29 27 26 26 25 24 22 22 23 23 22 20 18 15 13 12 10 9 8 7 6 6 6 7 7 7 7 7 8 9 11 12 13 14 15 19 23 28 33 36 37 36 35 34 34 33 32 32 32 31 30 29 29 29 28 27 26 26 26 26 25 25 24 23 23 22 21 21 21
40 41 42 42 42 41 41 42 42 42 42 40 38 36 34 31 29 28 26 25 24 24 23 22 21 21 20 19 17 15 12 9 7 5 3 2 2 2 3 4 5 5 6 6 7 7 8 8 8 9 11 15 20 25 29 32 35 36 35 34 33 32 31 31 30 30 29 28 28 28 28 28 28 27 27 27 26 26 25 25 24 23 23 22 22 22
42 42 43 42 41 41 41 42 42 42 41 40 38 35 32 29 28 27 26 24 23 22 22 21 19 18 16 15 14 12 9 7 3 0 2 4 5 5 5 6 7 7 8 9 11 12 12 11 10 7 7 12 18 24 28 31 33 34 34 33 31 30 28 28 28 27 27 26 26 26 26 27 27 28 28 28 27 27 26 26 26 25 24 24 24 23
42 42 43 42 41 40 41 42 42 41 40 38 37 34 31 27 25 24 24 23 22 21 20 18 16 14 12 11 11 9 7 4 1 3 6 7 8 8 9 9 10 11 12 13 14 16 17 16 16 13 10 8 13 19 25 28 30 30 30 29 28 27 26 25 25 24 24 24 24 24 24 25 25 26 27 27 27 27 27 27 27 27 26 26 26 26
42 42 42 41 40 40 41 42 41 40 38 36 35 33 30 26 24 22 21 21 20 19 17 14 12 10 9 9 8 6 2 1 4 6 7 8 9 9 9 10 10 12 13 14 15 16 16 16 16 16 15 12 10 13 18 22 25 25 25 24 24 24 23 23 23 23 23 23 24 24 23 23 23 24 24 25 26 27 27 27 27 27 27 27 27 27
42 42 41 41 40 40 41 41 40 38 36 34 33 30 28 26 23 22 21 20 19 17 14 12 10 9 8 7 5 2 2 5 6 7 8 8 8 8 9 9 9 10 11 12 14 14 15 15 15 14 14 14 13 12 13 15 19 21 22 22 22 22 22 22 22 22 22 22 22 23 23 23 23 23 23 24 24 25 26 26 26 26 26 25 25 25
Wind_Direction
301 302 301 301 302 303 303 303 303 304 305 305 304 304 304 303 301 300 298 298 298 299 299 298 297 295 294 293 292 291 290 287 284 283 285 288 289 289 287 286 285 284 284 285 286 286 285 285 285 286 286 287 286 286 284 283 281 279 276 271 267 264 262 261 259 257 255 253 252 251 251 250 247 245 244 244 244 244 244 244 245 245 244 242 236 230
303 303 303 303 303 304 304 304 305 306 306 306 306 306 305 304 303 302 300 299 299 298 298 297 297 296 296 295 293 292 290 288 286 285 284 285 285 285 285 285 285 285 285 286 286 286 285 285 285 286 287 287 287 286 285 283 282 281 278 275 270 266 263 262 260 258 256 254 252 251 250 250 248 246 244 243 243 244 244 245 245 245 244 240 234 228
306 306 305 305 305 305 305 305 305 305 306 306 306 306 305 305 304 303 302 301 300 299 298 298 297 297 297 296 294 292 291 291 291 289 287 285 284 284 285 286 286 286 287 287 287 287 286 286 287 287 288 288 288 286 285 283 282 281 279 276 272 268 265 263 261 259 256 254 252 250 249 249 248 247 245 243 243 243 244 245 246 246 244 238 231 225
306 306 305 306 305 304 304 304 304 303 303 304 304 304 305 305 305 304 303 303 302 302 301 299 299 299 299 298 296 295 294 295 296 296 292 288 286 285 286 288 289 290 291 290 289 289 288 288 289 289 289 289 288 287 285 283 282 280 278 276 273 270 267 265 263 260 257 255 252 250 248 248 247 247 246 245 244 243 242 243 244 244 242 235 227 222
306 305 305 306 305 304 303 303 302 303 303 303 303 304 304 304 304 304 304 304 304 303 302 300 299 299 299 298 297 297 297 298 300 300 297 291 287 285 286 288 290 292 294 294 293 292 292 291 290 290 289 288 287 286 285 283 281 279 277 274 271 269 267 267 265 262 258 256 253 251 248 247 246 246 246 245 243 241 239 239 240 240 237 231 225 221
305 304 305 304 303 303 303 303 303 304 304 304 304 304 304 304 303 303 303 304 304 303 302 300 299 298 297 297 297 298 299 300 300 299 296 291 287 284 284 285 287 290 292 293 293 294 293 293 291 290 289 288 287 286 286 284 282 279 276 272 269 266 265 264 264 263 261 258 256 253 250 247 245 244 245 244 242 239 237 236 236 236 233 228 224 221
303 303 304 302 302 302 302 302 302 303 304 304 304 304 303 303 302 302 302 303 303 302 302 301 300 298 297 297 299 301 303 301 297 293 290 288 286 283 282 282 284 286 288 289 291 292 292 292 291 290 289 289 289 289 289 287 285 281 277 273 269 265 262 261 261 261 261 259 258 256 254 250 246 244 244 244 242 240 237 236 235 234 231 227 223 221
300 301 302 301 301 302 301 301 301 302 303 303 303 303 303 302 302 302 302 301 301 301 301 301 301 300 299 300 302 303 303 301 297 293 291 289 287 284 283 283 283 284 285 286 288 288 289 289 289 289 290 292 293 294 294 292 290 286 281 276 271 267 264 262 261 261 260 259 258 257 256 253 249 245 243 243 242 241 239 237 235 233 230 226 223 222
298 299 300 299 300 300 301 300 301 301 301 302 301 300 300 301 301 302 302 302 301 301 301 302 302 302 301 301 301 301 299 297 297 296 294 292 291 290 289 288 287 285 284 284 285 286 286 286 286 287 289 292 295 298 299 298 295 291 285 280 274 270 266 264 263 263 261 259 256 255 255 254 251 248 245 243 242 242 240 238 235 233 230 226 223 221
297 298 299 299 299 298 299 299 300 301 301 301 300 299 298 298 299 301 301 301 301 300 300 301 301 301 300 299 298 298 297 296 295 295 294 294 295 297 297 295 291 287 285 284 285 285 285 284 284 285 288 291 295 298 300 300 298 294 288 282 276 271 267 265 264 262 261 258 255 254 253 253 253 251 248 245 243 242 240 238 236 233 230 226 222 219
299 299 300 299 300 299 298 297 299 300 301 300 299 298 297 297 297 298 299 299 299 300 300 300 300 299 299 299 300 299 299 298 297 297 297 297 299 301 302 299 294 289 285 284 284 284 284 283 283 285 287 291 294 297 300 301 300 296 290 284 278 272 268 265 263 261 259 256 254 253 252 252 252 252 251 248 245 242 240 239 236 233 229 224 220 218
300 301 301 300 300 299 298 297 299 300 301 300 299 298 298 297 297 296 296 296 298 299 300 301 300 299 299 300 301 301 301 300 300 300 301 300 301 302 303 299 293 288 284 283 283 282 282 282 283 285 287 290 293 296 299 301 301 298 293 286 280 275 270 267 264 262 260 257 254 253 252 252 252 253 253 251 248 244 240 238 235 232 228 222 218 216
302 302 301 300 299 298 297 298 299 300 300 299 298 296 297 298 298 296 294 294 295 297 299 300 300 300 299 300 300 301 302 301 301 301 301 300 300 299 298 294 289 286 284 284 282 281 279 280 281 284 286 289 292 294 297 299 301 301 297 291 285 279 275 272 269 267 263 260 257 254 252 251 251 252 253 252 249 244 240 237 233 230 225 219 215 215
304 303 302 300 298 298 298 298 298 297 298 298 297 296 297 298 298 296 295 294 294 296 298 298 298 298 298 297 297 297 299 300 300 300 299 298 297 295 293 291 289 288 287 287 285 282 280 280 281 282 284 287 290 292 295 297 300 300 299 295 289 284 280 277 275 272 268 264 260 256 254 252 252 252 253 252 248 243 239 235 231 228 223 216 213 213
305 304 302 300 298 298 298 298 297 297 297 298 298 298 298 297 297 296 295 294 295 297 298 297 296 296 296 295 296 297 298 298 297 296 295 294 294 293 291 290 290 290 288 286 284 282 280 280 281 283 284 287 289 292 294 295 297 297 297 295 290 286 282 279 277 274 271 267 263 259 255 253 252 252 252 250 246 241 237 232 230 227 221 214 210 209
305 304 301 299 299 299 298 298 297 297 298 298 298 297 296 295 296 296 295 294 295 297 297 296 296 295 296 296 297 299 300 298 294 292 292 291 291 290 289 290 291 289 286 284 283 282 281 281 282 284 287 289 291 293 294 295 294 294 294 293 290 286 281 278 275 273 271 267 263 259 256 253 252 252 250 247 243 239 235 231 229 226 219 212 208 207
304 303 301 300 299 299 298 298 297 296 297 298 298 296 295 295 296 296 295 294 295 296 294 293 292 293 295 298 299 300 301 298 296 295 297 299 298 296 293 295 296 294 288 285 283 282 283 284 286 287 289 292 294 295 296 295 293 292 292 292 291 287 281 276 273 271 270 267 263 258 255 252 251 249 247 244 240 236 232 229 228 225 219 211 208 207
303 303 302 300 300 299 298 298 297 296 297 298 298 298 297 296 296 295 294 293 294 293 292 291 289 288 290 293 296 298 297 297 299 301 302 301 297 293 290 291 292 291 287 284 283 283 284 286 288 290 292 294 296 297 297 296 294 292 291 291 290 287 281 276 273 272 271 269 265 259 255 251 249 247 243 240 236 232 229 228 227 223 217 212 209 209
304 303 302 301 300 299 297 296 296 296 296 297 298 298 297 296 296 294 293 292 292 291 290 290 289 288 289 290 292 293 293 295 298 299 299 297 294 291 288 287 287 286 284 284 284 285 288 290 292 294 296 297 298 298 298 296 294 292 291 290 289 285 279 274 272 271 272 271 267 261 255 252 248 244 239 235 232 230 227 225 222 218 214 211 209 209
304 304 302 301 299 297 296 296 296 297 297 298 297 296 294 295 295 294 294 294 294 294 294 292 292 292 292 292 292 292 293 295 297 297 295 294 293 292 290 288 287 286 286 287 288 291 293 295 296 298 298 299 299 298 297 295 293 291 290 289 286 281 275 271 269 268 269 268 265 261 256 252 247 240 234 230 228 226 224 220 215 210 207 206 205 206
303 302 302 301 299 296 294 295 296 297 296 295 294 293 294 296 299 300 301 302 302 302 301 299 296 295 294 294 294 293 292 294 295 295 293 292 291 290 289 287 286 286 286 288 290 293 296 298 298 299 299 299 299 298 297 295 293 291 289 287 283 277 271 268 266 265 266 265 263 260 257 251 243 235 229 225 223 221 217 212 207 203 202 201 200 200
302 302 302 302 298 295 293 293 294 295 294 295 296 298 301 304 306 306 305 304 303 301 299 297 294 292 291 291 291 290 289 291 291 291 290 289 288 288 288 286 284 284 285 287 291 295 297 299 299 299 300 300 300 299 298 296 294 291 288 285 280 274 269 265 263 263 264 264 264 262 256 246 236 227 221 217 214 211 207 204 202 201 200 198 197 195
303 301 301 299 297 294 293 293 294 296 299 302 304 305 306 305 304 303 302 300 299 297 294 293 291 291 290 289 289 290 291 290 289 287 284 282 283 284 285 283 282 283 285 289 293 296 298 299 300 300 301 301 300 300 298 296 293 290 287 283 278 272 267 263 262 262 264 265 263 257 247 235 224 215 210 207 205 202 201 200 200 199 199 197 195 192
303 300 298 296 296 296 297 299 301 303 304 305 304 304 303 302 302 301 300 299 298 297 296 295 293 292 291 291 292 293 293 292 290 286 280 277 278 281 284 284 286 288 290 291 293 296 298 299 300 301 301 302 301 301 299 297 293 290 286 282 277 272 267 264 263 265 266 263 256 246 233 221 212 206 202 200 199 198 198 198 198 198 197 195 193 190
301 299 297 298 299 300 301 302 302 303 303 304 304 304 304 304 304 304 303 302 301 299 297 295 293 293 294 295 295 296 298 300 299 295 289 287 287 289 289 289 291 292 292 292 293 295 296 298 299 301 302 302 303 302 301 298 294 289 285 281 277 273 269 267 267 268 265 256 244 232 221 211 204 200 198 197 196 196 196 196 196 195 194 193 190 188
303 302 301 302 302 301 300 299 300 303 306 308 308 309 309 308 307 306 305 304 303 302 300 299 300 302 303 304 303 302 301 300 299 298 299 299 297 295 292 290 289 289 290 291 293 294 295 297 299 300 302 303 304 304 302 299 294 289 284 281 278 275 272 270 269 265 257 244 233 222 212 205 200 197 196 195 195 194 194 194 194 193 192 191 190 189
306 306 306 305 303 302 301 302 306 311 314 314 313 311 310 308 307 306 305 305 305 307 309 310 309 307 306 304 302 300 299 297 294 293 293 294 293 290 289 288 287 287 288 290 292 292 293 295 298 300 301 302 304 304 303 300 294 287 280 275 273 271 269 267 263 255 244 233 223 214 206 200 197 195 194 194 193 193 193 193 192 192 191 191 191 192
309 309 309 308 307 306 304 307 311 315 317 317 315 313 311 309 306 304 304 306 307 308 308 307 306 305 304 303 301 300 299 297 295 294 293 291 287 285 286 287 287 288 289 290 291 291 292 294 296 298 300 301 302 302 299 293 283 271 259 252 253 255 256 254 249 241 233 224 215 207 200 196 194 193 193 193 193 192 192 192 192 192 191 191 191 190
312 313 313 314 314 311 308 310 314 317 318 317 316 314 312 310 307 304 305 306 307 306 304 303 303 302 302 301 301 300 299 297 296 296 296 291 284 282 285 287 289 290 291 291 292 292 293 293 295 296 298 299 298 293 279 258 240 229 223 223 229 235 239 237 232 226 221 213 206 199 195 192 191 191 191 191 191 191 191 191 191 190 189 188 187 184
314 316 318 319 319 316 313 314 317 318 318 317 316 314 314 312 310 308 307 308 306 303 302 302 302 302 301 301 300 299 297 296 297 297 294 290 287 287 288 290 291 292 292 292 291 291 293 294 294 296 297 296 287 270 248 227 215 209 207 208 214 219 221 219 214 209 204 198 194 190 189 188 188 188 188 188 188 189 189 189 189 187 185 183 181 177
316 319 322 323 322 319 317 317 318 319 319 318 317 316 315 314 313 311 309 306 303 301 301 301 302 301 300 298 296 293 292 292 291 288 285 288 288 287 289 291 292 292 291 289 286 287 292 297 297 296 298 293 274 250 234 221 211 205 202 202 201 201 201 198 194 190 186 184 182 181 182 183 183 184 184 186 187 188 188 187 187 185 182 180 177 174
318 322 325 325 322 319 317 317 318 319 319 319 318 317 316 315 314 311 308 304 302 301 302 302 302 301 298 294 289 285 285 286 286 285 285 287 287 287 287 289 290 290 290 288 282 278 281 290 294 293 290 279 255 236 227 217 208 201 197 195 191 186 183 180 177 175 172 171 171 172 175 176 178 180 183 185 187 187 186 185 185 185 183 180 176 173
320 324 326 324 320 317 316 317 318 318 318 318 317 317 316 315 314 312 309 305 304 303 304 304 303 301 298 295 290 286 284 285 285 286 287 287 287 287 288 288 288 288 288 286 282 276 271 274 280 282 276 263 244 229 219 210 202 196 192 186 180 174 170 169 168 167 165 165 165 166 168 171 174 178 182 185 186 186 184 184 185 185 183 180 176 173
324 325 324 321 317 315 315 317 318 318 318 317 316 316 315 315 314 312 310 308 306 305 305 304 303 302 299 296 293 289 287 286 286 286 286 285 284 284 285 286 285 285 285 283 280 275 270 269 271 271 267 255 236 218 206 199 195 192 188 182 175 170 168 167 167 167 166 165 165 165 165 167 170 174 179 182 183 182 181 182 183 183 182 179 176 172
324 323 321 317 315 314 316 317 318 319 318 317 316 316 315 315 314 313 311 309 308 306 305 303 302 300 299 296 294 291 290 288 288 287 286 284 283 282 283 283 282 282 281 279 277 274 271 269 268 266 262 249 230 212 201 195 192 190 187 183 177 172 170 170 170 169 167 166 165 165 166 167 169 172 176 178 177 176 175 178 180 181 179 177 175 172
322 319 317 315 314 315 317 317 319 319 319 318 318 317 317 316 315 314 312 310 309 307 304 301 298 296 295 294 293 292 292 292 292 291 289 288 286 285 284 283 282 281 278 276 274 272 270 268 266 264 259 243 226 213 204 197 193 190 187 184 180 176 173 172 172 171 169 168 167 167 168 169 170 172 173 172 171 170 171 175 177 177 175 174 173 172
318 316 315 315 315 316 317 317 318 319 319 319 319 319 318 317 316 314 313 311 310 307 304 301 297 295 293 293 294 294 295 296 297 297 295 293 292 290 287 286 286 284 279 275 272 270 267 263 260 258 252 238 222 212 206 200 195 192 189 185 182 179 176 175 175 174 173 171 171 171 172 173 172 170 169 166 165 166 169 173 175 175 173 172 172 173
316 314 315 316 317 317 317 318 318 318 319 319 319 319 319 318 317 316 315 313 311 309 306 304 301 299 299 300 301 300 299 300 300 301 301 300 298 295 292 291 290 288 283 277 272 267 262 256 250 244 239 233 223 214 206 200 196 192 190 187 185 182 179 179 179 179 179 178 176 176 175 174 171 167 164 163 163 165 168 172 175 175 174 174 175 177
315 314 314 315 317 318 318 318 318 319 319 319 319 319 320 319 318 318 317 315 313 311 309 308 308 308 309 310 309 306 303 302 302 303 304 303 302 300 297 295 293 290 285 278 271 264 257 251 246 240 233 227 221 214 207 200 195 192 190 187 185 183 182 181 182 183 184 183 180 177 174 172 168 164 162 162 164 166 169 172 175 177 178 177 177 180
314 313 314 316 317 318 318 318 319 320 320 321 321 321 321 320 320 319 318 316 314 312 311 311 312 314 316 315 312 308 304 303 303 303 303 303 302 300 298 296 292 287 280 271 264 257 251 247 244 243 240 232 223 213 205 199 195 192 188 184 181 181 181 181 181 183 185 185 181 175 171 168 165 163 163 164 167 169 171 173 176 179 180 179 179 180
314 314 315 317 319 319 319 319 320 321 322 323 323 323 322 322 322 321 320 318 316 314 314 316 318 319 318 315 311 307 303 301 300 300 300 300 299 298 295 292 288 281 272 264 257 251 247 243 241 241 241 238 230 217 205 197 193 190 186 182 180 179 179 178 179 180 181 181 178 173 169 165 163 163 165 167 170 172 174 176 177 180 184 185 184 182
316 316 317 319 320 320 320 321 322 323 324 324 323 323 323 323 323 322 321 320 319 319 321 323 325 323 319 315 310 305 301 298 297 296 296 295 294 293 290 286 280 273 266 260 254 250 245 243 241 242 241 239 229 214 201 194 189 186 184 182 180 177 176 176 176 177 177 175 173 170 166 164 164 165 167 169 172 175 178 180 182 184 187 189 191 190
317 317 319 320 321 321 321 321 322 323 324 324 323 323 323 324 323 322 322 322 322 323 324 326 326 323 318 313 308 303 299 296 295 293 292 291 289 286 283 278 271 265 261 258 255 251 248 245 243 242 243 241 230 213 197 189 184 182 181 181 178 175 172 174 175 175 174 172 170 168 166 166 166 168 169 171 173 176 180 183 186 189 190 192 194 196
318 320 321 322 322 322 322 321 322 323 324 324 323 323 324 325 325 324 323 323 324 325 327 328 326 322 316 310 305 300 296 294 293 291 288 285 281 276 272 266 261 256 253 251 251 251 250 246 242 240 238 234 223 208 195 187 182 179 178 178 178 176 174 174 175 174 173 172 170 169 168 168 168 169 171 173 175 178 182 185 188 191 192 193 194 196
320 321 322 322 322 321 320 321 322 324 324 324 324 324 325 326 326 326 325 326 327 329 330 329 326 320 312 307 303 298 293 291 289 287 284 278 271 264 257 251 248 246 245 242 242 242 241 237 233 230 226 220 210 199 190 184 181 178 177 177 178 179 179 178 176 175 174 173 171 170 170 170 171 172 173 175 178 181 185 188 190 192 193 193 192 193
321 322 322 322 321 319 319 321 323 324 325 325 324 325 325 326 327 328 328 329 331 332 331 330 324 316 308 303 300 296 290 285 281 278 276 270 262 251 241 234 231 230 229 227 224 222 222 221 219 216 211 203 195 191 187 183 180 179 178 178 179 179 179 178 177 177 177 175 173 173 173 174 176 177 178 179 182 185 188 191 193 195 197 196 195 194
322 322 322 321 320 319 320 322 324 325 325 325 325 325 326 328 329 330 331 332 333 333 332 329 323 314 306 299 295 290 284 275 271 272 268 252 226 207 197 195 197 198 195 190 185 182 182 181 187 196 199 192 186 183 183 183 181 180 180 181 181 180 178 177 178 180 180 178 177 177 177 178 180 182 184 186 187 189 191 194 196 198 200 200 200 199
323 323 322 321 320 319 320 323 325 326 325 325 325 326 328 329 331 332 333 334 335 335 332 327 320 310 301 294 290 288 281 268 259 214 95 94 100 111 125 137 147 153 154 150 145 138 132 128 127 137 171 188 186 182 181 182 182 182 183 183 182 181 179 179 180 181 182 182 182 182 182 183 185 187 189 190 192 194 195 197 198 200 202 203 204 205
324 323 322 321 320 319 321 324 325 326 326 326 326 328 330 332 334 335 336 337 338 337 332 325 316 305 293 287 287 288 281 267 203 102 93 90 93 99 108 118 128 133 135 135 133 128 123 118 112 109 115 155 180 182 182 182 183 184 184 184 183 182 180 179 180 181 183 184 186 187 188 189 191 192 193 194 196 197 199 200 201 202 204 205 207 208
325 324 323 321 320 320 322 324 326 326 326 327 328 330 332 335 338 340 341 341 340 337 332 324 313 300 289 285 286 287 284 111 99 92 89 88 89 91 96 105 115 122 126 127 127 124 120 116 113 111 112 120 143 168 177 179 180 181 181 182 182 182 181 180 180 182 184 186 188 190 192 193 195 196 198 199 200 201 202 203 204 204 205 207 209 210
325 324 323 321 320 321 324 326 327 327 327 329 330 333 336 339 343 345 346 345 342 337 331 322 311 299 289 287 288 302 86 89 84 80 79 83 85 86 88 94 101 109 115 119 120 119 116 111 108 109 114 120 127 140 159 169 174 175 177 179 181 183 183 183 182 183 185 187 190 191 193 194 196 197 200 201 202 203 204 205 206 207 207 209 210 212